QPF
0.00 0.00 0.00 0.00 0.00 0.00 0.00 0.00 0.00 0.00 0.00 0.00 0.00 0.00 0.00 0.00 0.00 0.01 0.00 0.00 0.01 0.01 0.01 0.01 0.01 0.01 0.01 0.00 0.01 0.01 0.01 0.02 0.01 0.03 0.04 0.05 0.05 0.07 0.11 0.13 0.14 0.16 0.16
0.00 0.00 0.00 0.00 0.00 0.00 0.00 0.00 0.00 0.00 0.00 0.00 0.00 0.00 0.00 0.00 0.00 0.00 0.00 0.00 0.01 0.01 0.01 0.01 0.01 0.01 0.01 0.01 0.01 0.01 0.01 0.02 0.02 0.03 0.04 0.05 0.06 0.07 0.09 0.12 0.12 0.13 0.15
0.00 0.00 0.00 0.00 0.00 0.00 0.00 0.00 0.00 0.00 0.00 0.00 0.00 0.00 0.00 0.00 0.00 0.00 0.01 0.01 0.01 0.01 0.01 0.01 0.01 0.01 0.01 0.01 0.01 0.01 0.01 0.01 0.02 0.02 0.03 0.04 0.06 0.08 0.10 0.10 0.11 0.12 0.13
0.00 0.00 0.00 0.00 0.00 0.00 0.00 0.00 0.00 0.00 0.00 0.00 0.00 0.00 0.00 0.00 0.00 0.00 0.00 0.01 0.01 0.01 0.01 0.01 0.01 0.01 0.01 0.01 0.01 0.01 0.01 0.01 0.02 0.02 0.02 0.03 0.05 0.09 0.12 0.13 0.13 0.13 0.14
0.00 0.00 0.00 0.00 0.00 0.00 0.00 0.00 0.00 0.00 0.00 0.00 0.00 0.00 0.00 0.00 0.00 0.00 0.00 0.00 0.01 0.01 0.01 0.01 0.01 0.01 0.01 0.01 0.00 0.01 0.01 0.01 0.01 0.01 0.01 0.01 0.03 0.06 0.10 0.15 0.17 0.18 0.16
0.00 0.00 0.00 0.00 0.00 0.00 0.00 0.00 0.00 0.00 0.00 0.00 0.00 0.00 0.00 0.00 0.00 0.00 0.00 0.00 0.00 0.01 0.01 0.02 0.01 0.01 0.00 0.00 0.00 0.00 0.01 0.01 0.02 0.02 0.01 0.01 0.01 0.04 0.08 0.14 0.20 0.22 0.18
0.00 0.00 0.00 0.00 0.00 0.00 0.00 0.00 0.00 0.00 0.00 0.00 0.00 0.00 0.00 0.00 0.00 0.00 0.00 0.00 0.00 0.01 0.01 0.02 0.01 0.01 0.01 0.01 0.01 0.00 0.00 0.00 0.00 0.01 0.02 0.02 0.01 0.02 0.07 0.12 0.17 0.24 0.24
0.00 0.00 0.00 0.00 0.00 0.00 0.00 0.00 0.00 0.00 0.00 0.00 0.00 0.00 0.01 0.00 0.00 0.00 0.00 0.00 0.00 0.01 0.01 0.02 0.02 0.02 0.02 0.02 0.02 0.02 0.02 0.01 0.01 0.01 0.01 0.02 0.02 0.03 0.06 0.10 0.16 0.23 0.30
0.00 0.00 0.00 0.00 0.00 0.00 0.00 0.00 0.00 0.00 0.00 0.00 0.00 0.01 0.01 0.01 0.00 0.00 0.00 0.00 0.01 0.01 0.01 0.01 0.01 0.02 0.01 0.00 0.01 0.02 0.02 0.01 0.00 0.00 0.01 0.01 0.01 0.01 0.03 0.08 0.15 0.21 0.26
0.00 0.00 0.00 0.00 0.00 0.00 0.00 0.00 0.00 0.00 0.00 0.00 0.00 0.00 0.00 0.01 0.00 0.00 0.00 0.00 0.00 0.01 0.01 0.02 0.01 0.01 0.00 0.00 0.01 0.03 0.03 0.02 0.02 0.02 0.01 0.01 0.00 0.01 0.01 0.04 0.10 0.18 0.23
0.00 0.00 0.00 0.00 0.00 0.00 0.00 0.00 0.00 0.00 0.00 0.00 0.00 0.00 0.01 0.01 0.00 0.00 0.00 0.00 0.01 0.01 0.01 0.02 0.02 0.00 0.00 0.00 0.00 0.02 0.02 0.03 0.05 0.05 0.05 0.04 0.04 0.04 0.03 0.02 0.05 0.12 0.22
0.00 0.00 0.00 0.00 0.00 0.00 0.00 0.00 0.00 0.00 0.00 0.00 0.00 0.00 0.01 0.01 0.01 0.00 0.00 0.00 0.00 0.01 0.01 0.02 0.02 0.00 0.00 0.00 0.00 0.00 0.00 0.00 0.03 0.05 0.05 0.04 0.04 0.04 0.04 0.04 0.05 0.08 0.18
0.00 0.00 0.00 0.00 0.00 0.00 0.00 0.00 0.00 0.00 0.00 0.00 0.00 0.00 0.00 0.01 0.01 0.00 0.00 0.00 0.00 0.00 0.01 0.01 0.01 0.00 0.00 0.01 0.00 0.00 0.00 0.02 0.04 0.05 0.05 0.04 0.04 0.04 0.06 0.07 0.07 0.10 0.14
0.00 0.00 0.00 0.00 0.00 0.00 0.00 0.00 0.00 0.00 0.00 0.00 0.00 0.01 0.01 0.01 0.02 0.02 0.01 0.01 0.01 0.01 0.01 0.01 0.00 0.01 0.01 0.02 0.02 0.02 0.02 0.04 0.06 0.07 0.08 0.08 0.08 0.08 0.08 0.08 0.08 0.09 0.13
0.00 0.00 0.00 0.00 0.00 0.00 0.00 0.00 0.00 0.00 0.00 0.00 0.00 0.00 0.01 0.01 0.01 0.00 0.00 0.01 0.01 0.01 0.02 0.02 0.03 0.05 0.07 0.07 0.07 0.07 0.07 0.07 0.06 0.09 0.12 0.13 0.11 0.09 0.07 0.08 0.09 0.10 0.10
0.00 0.00 0.00 0.00 0.00 0.00 0.00 0.00 0.00 0.00 0.00 0.00 0.00 0.00 0.00 0.00 0.00 0.00 0.00 0.01 0.01 0.01 0.01 0.02 0.04 0.07 0.08 0.09 0.10 0.10 0.09 0.09 0.09 0.11 0.12 0.13 0.13 0.11 0.09 0.08 0.09 0.11 0.11
0.00 0.00 0.00 0.00 0.00 0.00 0.00 0.00 0.00 0.00 0.00 0.00 0.00 0.00 0.00 0.00 0.00 0.00 0.01 0.01 0.01 0.01 0.01 0.02 0.04 0.06 0.07 0.08 0.09 0.10 0.11 0.10 0.11 0.13 0.14 0.14 0.13 0.12 0.11 0.09 0.09 0.11 0.11
0.00 0.00 0.00 0.00 0.00 0.00 0.00 0.00 0.00 0.01 0.01 0.01 0.01 0.00 0.00 0.00 0.00 0.00 0.00 0.01 0.01 0.02 0.03 0.03 0.04 0.05 0.06 0.07 0.10 0.10 0.11 0.11 0.11 0.13 0.14 0.14 0.13 0.13 0.12 0.10 0.10 0.11 0.12
0.00 0.00 0.00 0.00 0.00 0.00 0.00 0.00 0.00 0.01 0.01 0.01 0.01 0.02 0.01 0.00 0.01 0.01 0.01 0.02 0.03 0.04 0.04 0.04 0.04 0.04 0.05 0.07 0.10 0.11 0.11 0.12 0.12 0.13 0.14 0.12 0.12 0.13 0.13 0.13 0.12 0.12 0.13
0.00 0.00 0.00 0.00 0.00 0.00 0.00 0.00 0.00 0.01 0.01 0.02 0.02 0.02 0.01 0.01 0.03 0.04 0.03 0.04 0.04 0.05 0.05 0.04 0.04 0.03 0.04 0.07 0.09 0.10 0.11 0.11 0.12 0.13 0.13 0.11 0.11 0.11 0.13 0.13 0.13 0.13 0.12
0.00 0.00 0.00 0.00 0.00 0.00 0.00 0.00 0.01 0.01 0.01 0.02 0.02 0.01 0.00 0.01 0.03 0.03 0.04 0.05 0.06 0.07 0.07 0.06 0.05 0.04 0.05 0.07 0.09 0.10 0.10 0.11 0.12 0.14 0.13 0.12 0.10 0.10 0.12 0.14 0.14 0.16 0.15
0.00 0.00 0.00 0.00 0.00 0.00 0.00 0.00 0.01 0.01 0.01 0.02 0.03 0.02 0.01 0.02 0.03 0.04 0.04 0.05 0.06 0.06 0.06 0.07 0.06 0.05 0.06 0.06 0.08 0.10 0.10 0.12 0.13 0.13 0.13 0.11 0.10 0.09 0.10 0.12 0.13 0.16 0.16
0.00 0.00 0.00 0.00 0.00 0.00 0.01 0.01 0.01 0.01 0.01 0.02 0.02 0.02 0.03 0.03 0.03 0.03 0.04 0.04 0.04 0.05 0.05 0.06 0.06 0.07 0.07 0.07 0.08 0.10 0.10 0.11 0.12 0.11 0.12 0.11 0.11 0.10 0.10 0.11 0.11 0.14 0.14
0.00 0.00 0.00 0.00 0.00 0.01 0.01 0.01 0.01 0.01 0.01 0.02 0.02 0.03 0.04 0.04 0.04 0.04 0.04 0.04 0.05 0.05 0.05 0.05 0.05 0.05 0.07 0.08 0.08 0.06 0.07 0.08 0.08 0.10 0.10 0.09 0.10 0.12 0.12 0.12 0.13 0.13 0.13
0.00 0.01 0.01 0.01 0.01 0.01 0.01 0.02 0.01 0.01 0.02 0.02 0.02 0.04 0.04 0.03 0.03 0.03 0.05 0.05 0.06 0.05 0.04 0.05 0.05 0.05 0.05 0.07 0.08 0.06 0.05 0.03 0.03 0.06 0.09 0.10 0.10 0.12 0.13 0.15 0.15 0.14 0.13
0.01 0.01 0.01 0.01 0.01 0.01 0.01 0.02 0.01 0.02 0.03 0.03 0.03 0.03 0.03 0.03 0.02 0.03 0.04 0.04 0.05 0.05 0.06 0.07 0.06 0.06 0.06 0.06 0.06 0.05 0.04 0.02 0.02 0.02 0.05 0.09 0.12 0.12 0.15 0.17 0.15 0.15 0.13
MSLP
1015.25 1015.34 1015.38 1015.36 1015.28 1015.14 1014.97 1014.80 1014.64 1014.51 1014.43 1014.38 1014.35 1014.33 1014.30 1014.24 1014.16 1014.05 1013.92 1013.78 1013.65 1013.54 1013.43 1013.33 1013.21 1013.06 1012.87 1012.63 1012.34 1012.02 1011.67 1011.33 1011.02 1010.75 1010.54 1010.38 1010.27 1010.20 1010.15 1010.12 1010.10 1010.09 1010.11
1015.02 1015.07 1015.06 1015.00 1014.88 1014.72 1014.54 1014.35 1014.18 1014.05 1013.96 1013.90 1013.87 1013.85 1013.82 1013.76 1013.67 1013.56 1013.43 1013.28 1013.14 1013.01 1012.88 1012.77 1012.64 1012.50 1012.33 1012.12 1011.87 1011.59 1011.30 1011.02 1010.75 1010.51 1010.31 1010.15 1010.03 1009.92 1009.84 1009.76 1009.69 1009.63 1009.61
1014.79 1014.80 1014.76 1014.67 1014.53 1014.36 1014.17 1013.98 1013.81 1013.68 1013.58 1013.52 1013.48 1013.45 1013.41 1013.34 1013.23 1013.10 1012.94 1012.77 1012.60 1012.44 1012.30 1012.16 1012.04 1011.90 1011.76 1011.59 1011.40 1011.18 1010.95 1010.72 1010.50 1010.30 1010.11 1009.95 1009.81 1009.69 1009.57 1009.45 1009.35 1009.26 1009.21
1014.53 1014.53 1014.47 1014.37 1014.23 1014.05 1013.87 1013.68 1013.52 1013.40 1013.30 1013.24 1013.19 1013.14 1013.07 1012.97 1012.83 1012.66 1012.46 1012.25 1012.04 1011.85 1011.68 1011.54 1011.41 1011.30 1011.19 1011.07 1010.94 1010.79 1010.62 1010.44 1010.27 1010.09 1009.92 1009.76 1009.61 1009.47 1009.33 1009.20 1009.08 1008.99 1008.92
1014.24 1014.24 1014.19 1014.09 1013.95 1013.79 1013.62 1013.45 1013.30 1013.18 1013.09 1013.02 1012.95 1012.87 1012.77 1012.62 1012.44 1012.22 1011.97 1011.71 1011.47 1011.24 1011.06 1010.91 1010.79 1010.71 1010.64 1010.57 1010.49 1010.40 1010.29 1010.16 1010.01 1009.86 1009.70 1009.54 1009.38 1009.23 1009.10 1008.97 1008.87 1008.79 1008.75
1013.92 1013.93 1013.89 1013.81 1013.69 1013.54 1013.39 1013.24 1013.10 1012.99 1012.90 1012.81 1012.72 1012.60 1012.45 1012.26 1012.02 1011.75 1011.45 1011.15 1010.87 1010.62 1010.42 1010.28 1010.18 1010.13 1010.10 1010.08 1010.05 1010.01 1009.94 1009.84 1009.71 1009.57 1009.41 1009.25 1009.09 1008.95 1008.83 1008.74 1008.67 1008.64 1008.65
1013.57 1013.61 1013.59 1013.53 1013.42 1013.30 1013.16 1013.02 1012.89 1012.77 1012.66 1012.55 1012.43 1012.27 1012.08 1011.83 1011.55 1011.22 1010.89 1010.55 1010.25 1009.99 1009.79 1009.66 1009.59 1009.57 1009.58 1009.60 1009.61 1009.60 1009.55 1009.47 1009.34 1009.20 1009.03 1008.87 1008.72 1008.60 1008.51 1008.46 1008.46 1008.50 1008.58
1013.21 1013.27 1013.27 1013.23 1013.14 1013.02 1012.89 1012.75 1012.62 1012.48 1012.35 1012.21 1012.05 1011.85 1011.61 1011.33 1011.00 1010.64 1010.28 1009.93 1009.62 1009.37 1009.19 1009.07 1009.03 1009.03 1009.07 1009.12 1009.15 1009.15 1009.11 1009.03 1008.90 1008.74 1008.56 1008.39 1008.25 1008.15 1008.10 1008.12 1008.19 1008.33 1008.50
1012.84 1012.92 1012.94 1012.91 1012.82 1012.71 1012.57 1012.42 1012.26 1012.10 1011.94 1011.77 1011.57 1011.33 1011.06 1010.74 1010.40 1010.03 1009.66 1009.32 1009.02 1008.78 1008.62 1008.53 1008.50 1008.53 1008.59 1008.64 1008.68 1008.68 1008.63 1008.53 1008.38 1008.20 1008.01 1007.83 1007.70 1007.62 1007.62 1007.70 1007.86 1008.08 1008.36
1012.47 1012.56 1012.59 1012.55 1012.46 1012.33 1012.18 1012.00 1011.82 1011.63 1011.44 1011.23 1011.00 1010.74 1010.45 1010.13 1009.78 1009.42 1009.07 1008.74 1008.47 1008.25 1008.11 1008.04 1008.02 1008.06 1008.12 1008.17 1008.20 1008.18 1008.11 1007.99 1007.82 1007.62 1007.41 1007.23 1007.10 1007.04 1007.08 1007.21 1007.44 1007.75 1008.13
1012.08 1012.17 1012.19 1012.15 1012.04 1011.89 1011.71 1011.51 1011.30 1011.08 1010.86 1010.63 1010.38 1010.12 1009.83 1009.52 1009.20 1008.87 1008.54 1008.25 1008.00 1007.81 1007.67 1007.61 1007.59 1007.61 1007.65 1007.69 1007.70 1007.66 1007.56 1007.42 1007.23 1007.01 1006.80 1006.61 1006.49 1006.45 1006.51 1006.68 1006.96 1007.33 1007.78
1011.63 1011.72 1011.73 1011.67 1011.55 1011.38 1011.18 1010.95 1010.72 1010.48 1010.24 1010.00 1009.76 1009.51 1009.25 1008.97 1008.69 1008.40 1008.12 1007.86 1007.63 1007.44 1007.31 1007.22 1007.18 1007.17 1007.18 1007.18 1007.15 1007.09 1006.98 1006.82 1006.63 1006.41 1006.19 1006.01 1005.89 1005.86 1005.93 1006.12 1006.42 1006.83 1007.32
1011.09 1011.17 1011.17 1011.10 1010.97 1010.79 1010.57 1010.33 1010.09 1009.84 1009.61 1009.39 1009.17 1008.95 1008.74 1008.51 1008.28 1008.04 1007.79 1007.56 1007.34 1007.15 1006.99 1006.86 1006.77 1006.71 1006.66 1006.61 1006.55 1006.47 1006.35 1006.19 1006.01 1005.81 1005.61 1005.45 1005.34 1005.31 1005.38 1005.57 1005.86 1006.27 1006.77
1010.46 1010.52 1010.51 1010.44 1010.30 1010.11 1009.90 1009.66 1009.43 1009.20 1008.99 1008.80 1008.62 1008.45 1008.29 1008.13 1007.95 1007.76 1007.55 1007.32 1007.10 1006.87 1006.66 1006.47 1006.31 1006.17 1006.06 1005.96 1005.86 1005.76 1005.65 1005.52 1005.37 1005.21 1005.05 1004.91 1004.83 1004.80 1004.87 1005.03 1005.31 1005.69 1006.17
1009.73 1009.78 1009.76 1009.69 1009.56 1009.38 1009.18 1008.96 1008.75 1008.55 1008.38 1008.23 1008.11 1008.00 1007.90 1007.79 1007.66 1007.51 1007.32 1007.09 1006.83 1006.56 1006.28 1006.01 1005.75 1005.53 1005.34 1005.19 1005.06 1004.96 1004.87 1004.77 1004.68 1004.58 1004.48 1004.40 1004.34 1004.34 1004.39 1004.54 1004.77 1005.11 1005.55
1008.93 1008.97 1008.95 1008.88 1008.77 1008.61 1008.44 1008.25 1008.07 1007.90 1007.77 1007.67 1007.60 1007.55 1007.50 1007.44 1007.35 1007.22 1007.03 1006.78 1006.49 1006.15 1005.79 1005.42 1005.08 1004.77 1004.51 1004.31 1004.16 1004.07 1004.01 1003.97 1003.95 1003.93 1003.90 1003.88 1003.87 1003.89 1003.95 1004.07 1004.27 1004.56 1004.95
1008.13 1008.15 1008.14 1008.08 1007.98 1007.84 1007.69 1007.53 1007.38 1007.25 1007.16 1007.10 1007.07 1007.05 1007.05 1007.02 1006.95 1006.82 1006.62 1006.35 1006.00 1005.60 1005.16 1004.72 1004.29 1003.91 1003.59 1003.35 1003.20 1003.11 1003.10 1003.12 1003.18 1003.24 1003.30 1003.35 1003.40 1003.45 1003.52 1003.64 1003.81 1004.06 1004.41
1007.38 1007.38 1007.36 1007.31 1007.22 1007.11 1006.97 1006.83 1006.70 1006.60 1006.52 1006.48 1006.47 1006.48 1006.48 1006.47 1006.40 1006.27 1006.06 1005.76 1005.37 1004.92 1004.42 1003.91 1003.43 1002.99 1002.64 1002.38 1002.23 1002.17 1002.20 1002.28 1002.41 1002.55 1002.69 1002.81 1002.91 1003.00 1003.10 1003.21 1003.38 1003.61 1003.93
1006.71 1006.69 1006.66 1006.61 1006.52 1006.41 1006.29 1006.15 1006.03 1005.92 1005.85 1005.81 1005.79 1005.80 1005.80 1005.78 1005.71 1005.57 1005.34 1005.02 1004.61 1004.13 1003.61 1003.07 1002.56 1002.11 1001.74 1001.49 1001.35 1001.31 1001.38 1001.51 1001.69 1001.90 1002.09 1002.26 1002.41 1002.54 1002.65 1002.79 1002.95 1003.18 1003.49
1006.15 1006.10 1006.05 1005.98 1005.89 1005.77 1005.64 1005.50 1005.36 1005.24 1005.15 1005.08 1005.05 1005.03 1005.01 1004.97 1004.89 1004.74 1004.51 1004.19 1003.78 1003.31 1002.80 1002.28 1001.78 1001.34 1000.99 1000.76 1000.64 1000.63 1000.71 1000.88 1001.09 1001.31 1001.54 1001.74 1001.91 1002.06 1002.19 1002.34 1002.52 1002.75 1003.08
1005.66 1005.58 1005.50 1005.41 1005.30 1005.17 1005.02 1004.86 1004.70 1004.55 1004.42 1004.32 1004.25 1004.20 1004.16 1004.10 1004.00 1003.85 1003.63 1003.33 1002.96 1002.54 1002.08 1001.61 1001.16 1000.77 1000.46 1000.26 1000.16 1000.17 1000.27 1000.43 1000.63 1000.85 1001.06 1001.26 1001.42 1001.57 1001.71 1001.86 1002.05 1002.31 1002.64
1005.21 1005.09 1004.99 1004.87 1004.74 1004.59 1004.41 1004.23 1004.04 1003.87 1003.71 1003.57 1003.47 1003.38 1003.31 1003.23 1003.12 1002.98 1002.79 1002.54 1002.23 1001.88 1001.50 1001.12 1000.75 1000.44 1000.19 1000.03 999.96 999.97 1000.05 1000.19 1000.35 1000.53 1000.69 1000.84 1000.97 1001.09 1001.21 1001.36 1001.55 1001.82 1002.18
1004.75 1004.60 1004.46 1004.33 1004.18 1004.01 1003.82 1003.62 1003.42 1003.22 1003.04 1002.88 1002.74 1002.63 1002.54 1002.45 1002.36 1002.24 1002.08 1001.89 1001.66 1001.40 1001.12 1000.84 1000.57 1000.34 1000.16 1000.05 1000.00 1000.00 1000.05 1000.14 1000.24 1000.34 1000.43 1000.50 1000.57 1000.63 1000.72 1000.84 1001.03 1001.30 1001.66
1004.27 1004.09 1003.93 1003.77 1003.61 1003.44 1003.25 1003.05 1002.85 1002.65 1002.46 1002.30 1002.16 1002.04 1001.94 1001.85 1001.76 1001.67 1001.56 1001.43 1001.28 1001.11 1000.93 1000.75 1000.58 1000.43 1000.32 1000.24 1000.20 1000.19 1000.20 1000.22 1000.24 1000.25 1000.25 1000.23 1000.22 1000.22 1000.25 1000.33 1000.49 1000.75 1001.11
1003.77 1003.57 1003.39 1003.23 1003.07 1002.91 1002.74 1002.56 1002.38 1002.20 1002.04 1001.89 1001.76 1001.64 1001.55 1001.47 1001.40 1001.33 1001.26 1001.18 1001.09 1000.99 1000.89 1000.79 1000.70 1000.62 1000.56 1000.51 1000.47 1000.44 1000.41 1000.36 1000.30 1000.22 1000.12 1000.02 999.92 999.84 999.81 999.85 999.98 1000.21 1000.56
1003.32 1003.10 1002.92 1002.76 1002.61 1002.47 1002.33 1002.20 1002.06 1001.93 1001.80 1001.69 1001.58 1001.49 1001.41 1001.34 1001.28 1001.22 1001.17 1001.11 1001.06 1001.00 1000.95 1000.91 1000.86 1000.82 1000.79 1000.76 1000.71 1000.65 1000.58 1000.47 1000.34 1000.18 1000.01 999.82 999.65 999.51 999.43 999.42 999.50 999.70 1000.01
Thickness
5690 5685 5680 5676 5672 5668 5663 5659 5655 5651 5646 5643 5639 5635 5632 5629 5625 5621 5618 5616 5613 5611 5610 5609 5608 5608 5611 5615 5619 5622 5626 5630 5633 5642 5649 5654 5656 5660 5667 5673 5679 5685 5690
5689 5682 5677 5673 5668 5664 5660 5656 5651 5646 5642 5638 5634 5630 5626 5623 5619 5614 5611 5608 5605 5603 5601 5600 5599 5600 5601 5602 5606 5611 5616 5620 5624 5629 5637 5644 5648 5653 5659 5665 5672 5679 5684
5687 5680 5675 5670 5665 5660 5656 5651 5646 5641 5637 5632 5628 5624 5619 5616 5611 5607 5603 5600 5597 5595 5593 5592 5591 5591 5591 5594 5596 5600 5606 5611 5616 5622 5628 5635 5641 5647 5651 5657 5664 5670 5676
5684 5678 5672 5666 5662 5656 5652 5647 5641 5636 5631 5626 5621 5617 5612 5609 5605 5600 5596 5593 5590 5588 5586 5585 5584 5584 5584 5584 5587 5589 5593 5599 5606 5612 5620 5627 5633 5639 5643 5649 5655 5661 5668
5679 5674 5669 5664 5658 5653 5647 5642 5636 5630 5625 5620 5615 5610 5605 5602 5599 5595 5589 5586 5583 5581 5580 5578 5578 5577 5576 5575 5578 5583 5586 5590 5597 5605 5611 5619 5626 5631 5637 5643 5647 5653 5659
5675 5670 5666 5660 5654 5649 5643 5637 5631 5625 5619 5613 5608 5603 5599 5596 5591 5582 5576 5575 5575 5574 5573 5572 5571 5570 5569 5566 5566 5568 5570 5577 5586 5593 5602 5609 5616 5624 5630 5635 5639 5643 5650
5672 5667 5662 5656 5650 5644 5638 5632 5626 5619 5613 5607 5601 5597 5593 5588 5581 5574 5567 5564 5567 5568 5567 5565 5566 5568 5564 5564 5563 5561 5563 5565 5569 5576 5588 5597 5607 5614 5620 5628 5632 5636 5643
5669 5664 5659 5652 5646 5639 5632 5626 5619 5613 5607 5601 5596 5591 5586 5582 5575 5568 5561 5559 5561 5562 5561 5560 5558 5558 5557 5556 5557 5560 5562 5565 5567 5569 5577 5587 5594 5602 5610 5617 5624 5629 5635
5667 5661 5655 5649 5641 5634 5627 5620 5614 5607 5601 5595 5591 5586 5581 5577 5570 5562 5554 5557 5560 5559 5557 5556 5553 5552 5549 5544 5544 5548 5553 5558 5561 5565 5570 5576 5581 5589 5596 5605 5615 5621 5626
5664 5658 5651 5643 5635 5628 5621 5614 5608 5601 5595 5590 5586 5581 5577 5573 5567 5558 5550 5553 5557 5556 5554 5551 5547 5543 5539 5534 5535 5539 5543 5549 5553 5561 5563 5567 5573 5580 5586 5594 5606 5614 5619
5661 5653 5646 5638 5630 5624 5617 5610 5603 5597 5591 5585 5581 5578 5574 5570 5564 5556 5548 5547 5550 5549 5548 5547 5545 5537 5530 5525 5523 5528 5534 5536 5543 5549 5557 5564 5570 5577 5585 5591 5599 5608 5614
5655 5647 5640 5633 5626 5621 5612 5605 5599 5592 5587 5583 5579 5576 5574 5570 5563 5556 5546 5540 5537 5539 5540 5540 5537 5528 5522 5518 5518 5520 5520 5521 5531 5540 5549 5558 5566 5574 5581 5588 5594 5600 5608
5649 5642 5635 5628 5622 5615 5608 5602 5596 5591 5586 5582 5578 5575 5573 5570 5563 5552 5544 5538 5533 5531 5535 5532 5526 5520 5516 5516 5514 5512 5512 5518 5526 5533 5542 5551 5559 5567 5574 5579 5585 5590 5597
5643 5637 5631 5624 5618 5612 5604 5599 5594 5589 5585 5580 5575 5572 5569 5566 5561 5555 5549 5543 5533 5530 5529 5527 5521 5517 5514 5513 5514 5513 5514 5518 5523 5528 5535 5542 5550 5558 5564 5571 5577 5583 5587
5638 5633 5627 5621 5616 5607 5601 5595 5589 5585 5579 5571 5570 5567 5564 5561 5554 5541 5537 5537 5534 5529 5522 5523 5524 5524 5522 5521 5519 5517 5516 5516 5518 5522 5527 5533 5540 5548 5556 5564 5570 5577 5582
5633 5628 5624 5618 5611 5604 5598 5594 5588 5579 5573 5565 5558 5553 5555 5549 5543 5536 5530 5524 5519 5514 5512 5521 5524 5523 5522 5521 5520 5518 5517 5516 5517 5519 5523 5527 5533 5540 5548 5556 5563 5569 5576
5629 5624 5619 5613 5607 5600 5595 5589 5585 5581 5572 5564 5558 5552 5546 5543 5538 5533 5528 5523 5518 5511 5513 5521 5524 5524 5523 5521 5520 5518 5518 5516 5516 5517 5520 5524 5529 5535 5541 5549 5557 5564 5571
5624 5619 5611 5606 5600 5595 5590 5585 5581 5577 5573 5571 5564 5554 5548 5542 5537 5532 5526 5521 5526 5521 5522 5525 5525 5524 5523 5522 5520 5519 5518 5516 5515 5516 5518 5521 5526 5531 5537 5544 5551 5559 5566
5619 5614 5608 5603 5596 5592 5587 5582 5578 5574 5571 5569 5566 5561 5551 5546 5538 5533 5526 5528 5532 5531 5529 5527 5527 5526 5525 5523 5520 5518 5517 5516 5516 5516 5518 5520 5524 5528 5534 5540 5547 5552 5560
5613 5606 5598 5595 5591 5587 5583 5579 5575 5572 5569 5567 5563 5561 5558 5552 5549 5544 5536 5534 5532 5531 5529 5528 5527 5526 5525 5523 5520 5518 5518 5518 5517 5517 5518 5520 5523 5527 5532 5538 5544 5551 5558
5607 5603 5589 5585 5584 5582 5579 5575 5572 5568 5566 5563 5561 5559 5547 5548 5547 5544 5540 5536 5532 5530 5529 5527 5526 5525 5525 5523 5521 5520 5520 5520 5519 5520 5520 5522 5524 5527 5532 5537 5543 5549 5554
5597 5594 5589 5584 5580 5575 5573 5570 5567 5564 5562 5559 5558 5556 5546 5544 5544 5542 5539 5536 5532 5530 5528 5526 5525 5524 5524 5524 5522 5521 5522 5522 5522 5523 5523 5524 5526 5529 5533 5537 5541 5546 5551
5585 5583 5579 5576 5572 5568 5563 5562 5561 5560 5558 5556 5555 5552 5549 5545 5542 5539 5537 5534 5531 5529 5527 5525 5524 5524 5523 5523 5522 5521 5521 5523 5524 5525 5525 5526 5528 5530 5533 5536 5540 5544 5549
5573 5571 5569 5567 5565 5563 5561 5558 5556 5555 5554 5552 5550 5548 5545 5542 5539 5536 5534 5532 5530 5528 5525 5523 5522 5521 5520 5520 5520 5521 5522 5522 5523 5525 5527 5528 5530 5532 5534 5536 5541 5544 5547
5561 5560 5559 5557 5556 5555 5553 5552 5551 5549 5548 5546 5545 5542 5540 5538 5536 5534 5531 5529 5528 5526 5524 5521 5519 5519 5518 5517 5518 5519 5518 5517 5518 5521 5526 5529 5531 5533 5535 5537 5540 5543 5545
5549 5548 5547 5547 5546 5545 5544 5544 5543 5542 5541 5540 5539 5537 5536 5534 5533 5530 5529 5527 5526 5524 5522 5520 5518 5517 5516 5516 5516 5515 5514 5514 5515 5516 5521 5527 5530 5533 5535 5537 5539 5542 5544